Flag for Germany Weather past 2 weeks in Luckenwalde, Brandenburg, Germany

Now
54 °F

Overcast.


Feels Like: 53 °F
Forecast: 50 / 59 °F
Wind: 5 mph from West

Location: Potsdam

Current Time: Oct 20, 2014 at 11:35:56 PM

Latest Report: Oct 20, 2014 at 11:00 PM


Visibility: 22 mi

Pressure: 29.89 "Hg

Humidity: 94%

Dew point: 52 °F

Location of LuckenwaldeLocation

Historic Weather in Luckenwalde — Graph

°F

Luckenwalde temperature yesterday

Maximum temperature yesterday: 69 °F (at 3:00 PM)
Minimum temperature yesterday: 51 °F (at 8:00 AM)
Average temperature yesterday: 60 °F

Past Weeks' High & Low Weather Summary

 TemperatureHumidityPressure
High69 °F (Oct 19, 3:00 PM)100% (Oct 17, 3:00 AM)30.23 "Hg (Oct 17, 3:00 AM)
Low49 °F (Oct 7, 5:00 AM)53% (Oct 6, 4:00 PM)29.69 "Hg (Oct 9, 6:00 AM)
Average57 °F90%29.89 "Hg
* Reported Oct 5 10:00 PM — Oct 20 10:00 PM, Luckenwalde, Weather by CustomWeather, © 2014

Note: Actual official high and low records may vary slightly from our data, if they occured in-between our weather recording intervals... More about our weather records

Advertising

Luckenwalde weather history for previous 24 hours

 ConditionsComfort  
Time TempWeatherWind HumidityBarometerVisibility
10:00 PM
Oct 20
54 °FPassing clouds.5 mph93%29.90 "Hg25 mi
9:00 PM55 °FPassing clouds.7 mph91%29.90 "Hg28 mi
8:00 PM56 °FPassing clouds.6 mph90%29.90 "Hg28 mi
7:00 PM56 °FPassing clouds.8 mph88%29.90 "Hg22 mi
6:00 PM57 °FOvercast.7 mph88%29.89 "Hg22 mi
5:00 PM58 °FPartly sunny.9 mph85%29.90 "Hg22 mi
4:00 PM59 °FOvercast.9 mph80%29.90 "Hg22 mi
3:00 PM61 °FOvercast.10 mph74%29.90 "Hg22 mi
2:00 PM60 °FOvercast.8 mph79%29.90 "Hg22 mi
1:00 PM60 °FOvercast.9 mph77%29.91 "Hg22 mi
12:00 PM58 °FPartly sunny.10 mph79%29.92 "Hg19 mi
11:00 AM57 °FOvercast.8 mph82%29.91 "Hg19 mi
10:00 AM56 °FPartly sunny.9 mph86%29.91 "Hg19 mi
9:00 AM54 °FScattered clouds.8 mph94%29.90 "Hg22 mi
8:00 AM54 °FPartly sunny.8 mph97%29.90 "Hg17 mi
7:00 AM54 °FPassing clouds.7 mph98%29.90 "Hg28 mi
5:00 AM56 °FPassing clouds.6 mph96%29.91 "Hg22 mi
4:00 AM56 °FOvercast.6 mph97%29.91 "Hg22 mi
3:00 AM57 °FOvercast.6 mph96%29.91 "Hg25 mi
2:00 AM57 °FOvercast.7 mph97%29.90 "Hg22 mi
1:00 AM58 °FOvercast.6 mph97%29.90 "Hg19 mi
12:00 AM59 °FLight rain. Overcast.7 mph96%29.91 "Hg19 mi
11:00 PM
Oct 19
64 °FPassing clouds.10 mph82%29.89 "Hg22 mi
Weather by CustomWeather, © 2014

See weather overviewHow to use our weather pages